Talkeetna, AK

5:21 PM AKDT on April 19, 2018 (GMT -0800)
Talkeetna

Weather History for PATK - December, 2011

Change the Weather History Date:

Monday, December 19, 2011

  Actual Average Record
Temperature  
Mean Temperature 26 °F -  
Max Temperature 34 °F 22 °F 40 °F (1969)
Min Temperature 17 °F 6 °F -32 °F (1957)
Degree Days  
Heating Degree Days 40    
Moisture  
Dew Point 21 °F    
Average Humidity 82    
Maximum Humidity 96    
Minimum Humidity 61    
Precipitation  
Precipitation 0.05 in - - ()
Sea Level Pressure  
Sea Level Pressure 29.47 in    
Wind  
Wind Speed 10 mph (SE)    
Max Wind Speed 24 mph    
Max Gust Speed 33 mph    
Visibility 7 miles    
Events Snow    
Averages and records for this station are not official NWS values.
T = Trace of Precipitation, MM = Missing Value Source: NWS Daily Summary

Daily Weather History Graph

Daily Weather History Graph

Search for Another Location

Airport or City:

Astronomy

Dec. 19, 2011 Rise Set
Actual Time 10:26 AM AKST 3:28 PM AKST
Civil Twilight 9:19 AM AKST 4:35 PM AKST
Nautical Twilight 8:16 AM AKST 5:38 PM AKST
Astronomical Twilight 7:20 AM AKST 6:34 PM AKST
Moon 3:30 AM AKST (12/19) 12:42 PM AKST (12/19)
Length of Visible Light 7h 16m
Length of Day
5h 01m
Waning Crescent, 30% of the Moon is Illuminated
Dec 19
Waning Crescent
Dec 24
New
Dec 31
First Quarter
Jan 8
Full
Jan 16
Last Quarter

Hourly Weather History & Observations

Time (AKST) Temp. Windchill Dew Point Humidity Pressure Visibility Wind Dir Wind Speed Gust Speed Precip Events Conditions
12:08 AM 33.8 °F 21.3 °F 30.2 °F 87% 29.16 in 5.0 mi South 24.2 mph 33.4 mph 0.00 in Snow Light Snow
12:53 AM 34.0 °F 23.8 °F 30.0 °F 85% 29.21 in 3.0 mi South 16.1 mph 26.5 mph 0.00 in Snow Light Snow
1:29 AM 33.8 °F 24.8 °F 30.2 °F 87% 29.23 in 5.0 mi South 12.7 mph 21.9 mph 0.00 in Snow Light Snow
1:53 AM 34.0 °F 23.4 °F 28.0 °F 79% 29.26 in 9.0 mi South 17.3 mph 24.2 mph 0.00 in   Overcast
2:01 AM 33.8 °F 24.8 °F 28.4 °F 81% 29.25 in 10.0 mi South 12.7 mph 24.2 mph N/A   Overcast
3:53 AM 33.1 °F 23.4 °F 24.1 °F 70% 29.34 in 10.0 mi SSW 13.8 mph 19.6 mph N/A   Overcast
4:53 AM 33.1 °F 22.6 °F 23.0 °F 66% 29.37 in 10.0 mi South 16.1 mph 23.0 mph 0.00 in   Overcast
5:53 AM 33.1 °F 25.5 °F 21.9 °F 64% 29.39 in 10.0 mi South 9.2 mph 18.4 mph N/A   Overcast
6:53 AM 33.1 °F 26.1 °F 21.0 °F 61% 29.42 in 10.0 mi South 8.1 mph 18.4 mph N/A   Overcast
7:53 AM 32.0 °F 25.6 °F 19.9 °F 61% 29.44 in 10.0 mi Variable 6.9 mph - N/A   Scattered Clouds
8:53 AM 27.0 °F - 19.9 °F 75% 29.47 in 10.0 mi Calm Calm - N/A   Clear
10:53 AM 17.1 °F - 15.1 °F 92% 29.51 in 10.0 mi Calm Calm - N/A   Clear
11:53 AM 17.1 °F - 16.0 °F 96% 29.53 in 10.0 mi Calm Calm - N/A   Clear
12:53 PM 17.1 °F - 15.1 °F 92% 29.54 in 10.0 mi Calm Calm - N/A   Partly Cloudy
1:53 PM 19.0 °F - 16.0 °F 88% 29.55 in 10.0 mi Calm Calm - N/A   Overcast
2:09 PM 19.4 °F - 17.6 °F 93% 29.52 in 10.0 mi Calm Calm - N/A   Overcast
2:53 PM 21.0 °F - 18.0 °F 88% 29.53 in 10.0 mi Calm Calm - N/A   Overcast
4:53 PM 24.1 °F 17.0 °F 17.1 °F 75% 29.52 in 10.0 mi NNE 5.8 mph - N/A   Overcast
5:53 PM 24.1 °F 18.2 °F 17.1 °F 75% 29.53 in 10.0 mi North 4.6 mph - N/A   Overcast
6:53 PM 25.0 °F 20.7 °F 17.1 °F 72% 29.53 in 10.0 mi North 3.5 mph - N/A   Overcast
7:43 PM 24.8 °F - 17.6 °F 74% 29.52 in 10.0 mi Calm Calm - N/A   Overcast
7:53 PM 25.0 °F 20.7 °F 17.1 °F 72% 29.55 in 10.0 mi North 3.5 mph - N/A   Overcast
8:53 PM 24.1 °F - 21.0 °F 88% 29.55 in 3.0 mi Calm Calm - 0.00 in Snow Light Snow
9:19 PM 24.8 °F 20.5 °F 21.2 °F 86% 29.53 in 2.0 mi NE 3.5 mph - 0.00 in Snow Light Snow
9:33 PM 24.8 °F - 23.0 °F 93% 29.53 in 1.8 mi Calm Calm - 0.00 in Snow Light Snow
9:53 PM 24.1 °F - 21.9 °F 91% 29.56 in 1.5 mi Calm Calm - 0.01 in Snow Light Snow
10:04 PM 24.8 °F - 23.0 °F 93% 29.54 in 2.0 mi Calm Calm - 0.00 in Snow Light Snow
10:41 PM 24.8 °F - 21.2 °F 86% 29.55 in 1.5 mi Calm Calm - 0.01 in Snow Light Snow
10:53 PM 24.1 °F - 21.9 °F 91% 29.58 in 1.5 mi Calm Calm - 0.02 in Snow Light Snow
11:24 PM 24.8 °F 19.1 °F 21.2 °F 86% 29.56 in 1.0 mi NE 4.6 mph - 0.01 in Snow Light Snow
11:36 PM 24.8 °F 20.5 °F 21.2 °F 86% 29.56 in 1.2 mi NE 3.5 mph - 0.01 in Snow Light Snow
11:53 PM 24.1 °F 19.7 °F 21.9 °F 91% 29.59 in 2.0 mi NE 3.5 mph - 0.02 in Snow Light Snow